Location: Unspecified
(0.0000°N, 0.0000°E)
Time: 06:31:55
(UTC+00:00)

Vanguard 2 - Pass Details

Date: 22 November 2019
Orbit: 553 x 2938 km, 32.9° (Epoch: 10 December)

Event Time Altitude Azimuth Distance (km) Brightness Sun altitude
Rises 00:15:45 0° 217° (SW) 5,801 12.2 -68.7°
Reaches altitude 10° 00:20:15 10° 205° (SSW) 5,112 11.8 -68.3°
Maximum altitude 00:33:04 28° 151° (SSE) 4,322 11.3 -66.9°
Drops below altitude 10° 00:47:09 10° 99° (E) 5,694 12.1 -65.0°
Sets 00:52:26 0° 88° (E) 6,550 12.5 -64.2°
